sat.trackr.live / text

‹ back to catalog

GLOBAL-17

NORAD 49949 · 2021-120A

PAYLOAD ACTIVE UNKNOWN

§ Identity

Operator
Country
US
Launch date
2021-12-09
Launch site
RLLB
Launch vehicle
Mass (kg)
RCS (m²)

External: N2YO · Heavens-Above · Gunter

§ Orbital elements

Epoch: 2026-09-20T03:55:33.447648Z

Period
92.47 min
Inclination
41.9931°
Eccentricity
0.0017738
Mean motion
15.57243820 rev/d
Perigee alt
383.6 km
Apogee alt
407.7 km
Semi-major
6,773.8 km
B*
3.6272e-4
RAAN
201.2632°
Arg perigee
208.4200°
Mean anomaly
151.5680°
Rev number
26,968

§ Raw data

GLOBAL-171 49949U 21120A   26263.16358157  .00027103  00000+0  36272-3 0  99912 49949  41.9931 201.2632 0017738 208.4200 151.5680 15.57243820269686

JSON: /api/v1/satellites/49949 · /tle

For live sub-satellite position, see the globe view (requires WebGL).

§ Visibility from observer

Set your observer location to see the next 7 days of passes ≥ 10°. The values pass through the URL so the page stays shareable.

No JS? Fill the form by hand. The geolocation button needs JavaScript.

§ Radio — SatNOGS DB

ModeDescriptionDownlinkUplink
FM Telemetry 400.875 MHz

1 transmitter · refreshed weekly from db.satnogs.org